Regional Weather Roundup
Issued by NWS Charleston, SC

Current Version | Previous Version | Graphics & Text | Print | Product List | Glossary On
Versions: 1 2 3 4 5 6 7 8 9 10 11 12 13 14 15 16 17 18 19 20 21 22 23 24 25 26 27 28 29 30 31 32 33 34 35 36 37 38 39 40 41 42 43 44 45 46 47 48 49 50
000
ASUS42 KCHS 161527
RWRCHS

Regional Weather Roundup
National Weather Service Charleston SC
1000 AM EST SAT DEC 16 2017

NOTE: "fair" indicates few or no clouds below 12,000 feet with no
significant weather and/or obstructions to visibility.

Not all stations are quality controlled. Use data with caution,
especially dewpoint observations.

SCZ027-030-031-034>040-042>050-161600-
...Southeast South Carolina...

CITY           SKY/WX    TMP DP  RH WIND       PRES   REMARKS
N Charleston   MOSUNNY   45  30  55 NE9       30.32R
Waterfront Prk   N/A     44  33  65 NE7       30.16R
Mount Pleasant FAIR      46  32  57 CALM      30.33R
Johns Island   FAIR      46  32  57 NE8       30.32S
Pinopolis        N/A     41  30  65 E7        30.25R
Moncks Corner  FAIR      45  25  45 NE8       30.33R
Summerville    FAIR      43  28  56 CALM      30.34R
Beaufort MCAS  CLOUDY    44  31  60 NE6       30.33R
Beaufort Arpt  FAIR      41  32  70 NE8       30.32S HAZE
Hilton Head Is SUNNY     41  30  65 NW7       30.33R
Walterboro     SUNNY     43  30  61 E6        30.34R
Allendale      FAIR      41  28  60 E5        30.32R

...Southern Midlands and Pee Dee...

CITY           SKY/WX    TMP DP  RH WIND       PRES   REMARKS
Georgetown     FAIR      45  27  49 NE8       30.34S
Kingstree      FAIR      43  27  52 CALM      30.34S
Orangeburg     SUNNY     41  25  53 E8        30.32R
Barnwell         N/A     43  28  56 E5        30.33R
Aiken          FAIR      39  27  60 E6        30.34R WCI  35
Manning        FAIR      43  25  49 MISG      30.33S
Columbia       MOSUNNY   40  29  64 E5        30.32R WCI  37
Sumter         SUNNY     42  23  46 E6        30.30R
Florence       SUNNY     42  23  46 E6        30.33R
Myrtle Beach   SUNNY     43  25  49 N12       30.34R
N Myrtle Beach SUNNY     43  25  49 NE9       30.33R

$$

GAZ063-065-086>088-099>101-113>116-118-119-134>141-150-161600-
...Southeast Georgia...

CITY           SKY/WX    TMP DP  RH WIND       PRES   REMARKS
Savannah Arpt  PTSUNNY   42  27  55 N8        30.33R
Hunter AAF     SUNNY     43  27  54 N5        30.30R
Fort Stewart     N/A     43  27  53 N6          N/A
Statesboro     CLOUDY    42  25  49 CALM      30.33R
Sylvania       MOSUNNY   41  31  67 CALM      30.33R
Claxton        FAIR      42  29  61 CALM      30.34R

...CSRA, Central and far Southeast Georgia...

CITY           SKY/WX    TMP DP  RH WIND       PRES   REMARKS
Thomson        SUNNY     37  25  61 CALM      30.37R
Augusta-Bush   SUNNY     39  28  64 CALM      30.33R
Augusta-Daniel SUNNY     40  26  57 VRB5      30.32R WCI  37
Swainsboro     FAIR      39  28  65 CALM      30.34R
Vidalia        MOSUNNY   41  30  65 NE6       30.33R
Eastman        FAIR      42  20  42 NE3       30.36R
Hazlehurst     FAIR      42  19  38 E3        30.33R
Alma           MOSUNNY   45  27  49 N7        30.33R
Waycross       SUNNY     47  25  41 NE3       30.33S
Jesup          NOT AVBL
Baxley         FAIR      41  28  60 NE5       30.34R
Brunswick      SUNNY     46  27  46 N6        30.33R
Saint Simons   SUNNY     47  30  51 NW9       30.31R

$$

SCZ027-028-034-036>038-045-046-048>050-GAZ119-141-161600-
...Lake and Supplemental Coastal Observations...

STATION/POSITION TIME  TEMP    WIND        PRES    WAVE   SWELL
                       AIR SEA DIR/SP/G            HT/PER HT/PER/DIR
                 (UTC) (F)     (DEG/KT/KT) (MB)    (FT/S) (FT/S/D)
Winyah Bay       1445   43      40/  7     1027.0R
Lake Murray      1430   41     130/  4/  7 1025.4R
ACE Basin NERRS  1445   41      10/  2     1027.0R
Fort Pulaski     1406   40 53  350/ 10/ 13 1026.6
Sapelo Island    1500   46      10/  7     1027.0

$$

ANZ835-935-AMZ111-154-330-350-352-354-370-450-454-472-161600-
...C-MAN and Buoy Observations...

STATION/POSITION TIME  TEMP    WIND        PRES    WAVE   SWELL
                       AIR SEA DIR/SP/G            HT/PER HT/PER/DIR
                 (UTC) (F)     (DEG/KT/KT) (MB)    (FT/S) (FT/S/D)
Buoy 41004       1510   53 72   30/ 12/ 16 1025.6
Buoy 41008       1450   47 58   20/ 12/ 14 1026.4R   2/ 4
Folly Beach CMAN 1500   44      30/ 10/ 11 1027.1R
Capers Nearshore 1508   44 55   50/ 14/ 19 1026.1R


STATION/POSITION TIME  TEMP    WIND        PRES    WAVE   SWELL
                       AIR SEA DIR/SP/G            HT/PER HT/PER/DIR
                 (UTC) (F)     (DEG/KT/KT) (MB)    (FT/S) (FT/S/D)
5E St. Marys GA  1500      62                N/A     2/ 4
Frying Pan Buoy  1510   47 68   10/ 12/ 17 1026.1
Buoy 41025       1510   44 72  330/ 12/ 17 1025.3
Cape Lookout NC  1500          340/ 11/ 13 1026.1R
Buoy 41002       1450   64 74  350/ 12/ 14 1022.9R   7/ 8   5/280/ 8
Buoy 41010       NOT AVBL
St Augustine FL  1500   55 62   10/ 13/ 15 1026.1R


$$




USA.gov is the U.S. government's official web portal to all federal, state and local government web resources and services.